CANX-6

导读 | 星芒AI

CANX-6 是一颗由加拿大滑铁卢大学开发的立方体卫星,主要用于教育和研究目的。该卫星于2000年发射,是加拿大先进纳米卫星计划(CANX)的一部分,旨在验证小型卫星平台的可行性和关键技术。CANX-6 配备了多种实验载荷,包括用于姿态控制和通信的系统,为后续立方体卫星任务提供了宝贵经验。其成功运行推动了小型卫星在科研和教学中的广泛应用。

基本信息
目录编号:
32784
目录名称:
CANX-6
国际标识:
2008-021B
轨道中心:
EARTH
卫星名称:
CANX-6
卫星全名:
--
卫星状态:
在轨 (已飞行6395 天)
发射日期:
2008-04-28 UTC
国别 :
加拿大 (CA)
星等 :
--
轨道信息
数据来源 国际轨道数据 AOE轨道数据
星历时间 2025-10-31T11:32:14+0800
10小时前
查看轨道信息
2025-10-30T16:00:00+0800
1天前
查看轨道信息
半长轴 6942.153km 6942.206km
偏心率 0.0011723 0.0011672
轨道倾角 97.872° 97.872°
近地点辐角 158.055° 159.916°
升交点赤经 274.375° 273.552°
平近点角 202.118° 124.373°
近地点 555.879km 555.968km
远地点 572.157km 572.174km
周期 95.940分钟 95.941分钟
每日圈数 15.009338 15.009165
详细信息
使用方式:
暂无
2D轨道图
3D轨道图
轨道高度分析图
轨道倾角分析图
轨道综合分析图
查看轨道综合分析图